カタログに戻る

IRIDIUM 140

運用中通信PO
NORAD 43252·PAYLOAD·🇺🇸 United States

打ち上げ Mar 30, 2018 から Vandenberg Space Force Base

Loading…

次のパス (今後24時間)

TLE

最新Source: CelesTrak SupGP

元期: Sep 14, 2026, 20:27 UTC

1 43252C 18030D   26257.85243056  .00003313  00000+0  11846-2 0  2571
2 43252  86.3913 252.9252 0002325  89.7347 242.8699 14.34214086    19

AllMySatでIRIDIUM 140をリアルタイム追跡

Download on the App Store